DECAYED

CZ-2D DEB, 57730 (Decayed)

Orbit data source: Space-Track

CZ-2D DEB, 57730 was space debris in LEO originally from a launch on Thu, 31 Aug 2023 UTC launched from the Xichang Space Center, China (XSC). Debris objects in space refer to the collection of defunct objects orbiting the Earth. Examples of debris include non-operational satellites, rocket bodies, and fragments generated from explosions, collisions, or faulty payload assembly.

Not visible in the next 10 days
CZ-2D DEB details
Identifier
57730, 2023-130D
Orbit
Decayed
Last TLE update7 months ago
Origin
Flag of CNCASC (CN / PRC)
ManufacturerSAST
MissionDecayed spacecraft
Bus & MotorUnknown
Mass300 kg wet, 300 kg dry
Launch date (UTC)
2023-08-31 (1 year ago)
Launch vehicleUnknown
Launch site
Xichang Space Center, China (XSC)
Object type
Payload
Rocket body
Debris
Shape & HBRCone + 1 Sail, 5 m
Radar Cross Section4.639 m², Large (>1 m²)

Expand to show TLE details & history

TLE from 7 months ago
0 CZ-2D DEB
1 57730U 23130D   24150.55504847  .12114214  12436-5  14706-2 0  9998
2 57730  34.9658 104.6230 0010499 227.5015 286.6204 16.35014401 42032
Epoch: 2024-05-29T13:19Z
Definitive object data (Epoch: 2024-05-29T13:19:16.187Z)
Latitude14.59515°
Longitude175.51603°
Altitude175.252 km
Speed7.806 km/s
True Right ascension17h 31m 34s
True Declination14° 30' 15"
Sunlit
Object was in full shadow at TLE epoch
Visualization observer readout
Observer readout values are unavailable because the object's trajectory could not be propagated. This is usually caused when the trajectory data is faulty or the object's orbit has decayed.
Visualization observer readout
Observer readout values are unavailable because the object's trajectory could not be propagated. This is usually caused when the trajectory data is faulty or the object's orbit has decayed.
Orbital elements
Apogee altitude189.4 km
Perigee altitude175.624 km
Semi-major axis6,560.649 km
Eccentricity0.0010499
Inclination34.9658°
RAAN104.623°
Arg. of periapsis227.5015°
True anomaly286.50507°
Mean anomaly286.6204°
Eccentric anomaly286.56274°
Mean motion4.08435 °/min
BSTAR0.0014706
Orbital period88.14 mins
Loading maneuver chart data...
Loading historical data...
Loading historical data...
Loading historical data...
Loading historical data...
Loading historical data...
Loading historical data...
Loading historical data...

CZ-2D DEB Visibility forecast

Observer location: undefined°, undefined

This satellite is decayed
Span
Click to sort rows by Start time (UTC) header in descending order
Start Az.
Max El. time (UTC)
Max El. Az.
Max El.
End time (UTC)
End Az.
|